SITRO-AIS 35

Last updated on Thu Nov 21 2024 00:03:40 GMT+0000 (Coordinated Universal Time)

1 59056U 24039F 24325.60111388 .00064658 00000+0 14120-2 0 9995 2 59056 97.4080 288.0186 0014718 37.4672 322.7599 15.43860900 40588
UTC large
Height (km)
Speed (km/s)
/
Latitude / Longitude
Inclination (degrees)
Orbital Period (minutes)
Azimuth
Elevation
Range (km)
Doppler Factor

Next 0 passes for location: London (51.5072 / 0.1276)

Sorry there are no passes over London.